Wind_Speed
27 17 22 29 26 25 25 25 29 25 18 27 22 18 13 21 17 18 18 19 19 18 13 9 8 11 14 16 18 17 16 13 11 9 8 8 6 7 4 6 11 11 14 16
16 19 22 23 22 24 25 25 19 21 15 20 23 21 14 23 19 18 17 16 17 15 12 10 7 9 11 14 17 18 15 14 12 11 11 8 8 9 12 13 15 16 16 14
20 18 19 22 19 14 18 23 16 21 17 19 22 20 20 15 26 31 24 16 12 14 13 11 10 9 10 11 14 14 16 13 12 11 10 9 8 8 3 3 3 3 4 5
16 18 10 17 22 18 16 19 18 19 21 16 19 16 22 20 17 18 24 21 20 14 10 9 9 9 10 11 12 12 12 11 8 7 8 9 6 7 6 4 3 4 5 5
11 18 17 20 21 18 10 15 19 15 18 16 20 14 24 21 19 18 22 23 16 14 12 11 9 8 8 9 10 12 11 11 9 9 9 9 8 8 8 7 8 7 9 9
10 20 22 16 16 12 12 20 17 17 11 13 15 18 17 23 24 22 22 20 20 18 16 13 9 10 9 11 11 12 12 12 13 11 10 9 10 12 12 9 7 6 6 8
13 18 15 21 19 13 13 20 11 14 13 11 18 14 14 21 22 24 23 24 22 19 19 18 14 12 13 14 15 16 16 18 16 16 16 15 15 13 10 10 8 7 5 7
16 15 14 19 24 20 21 21 15 19 15 12 12 11 9 9 2 13 20 23 21 19 20 21 22 19 16 17 18 20 19 20 21 20 19 17 14 11 10 8 6 5 5 9
9 11 14 21 20 17 23 16 4 2 16 13 10 5 3 6 13 13 16 17 17 19 20 21 24 23 21 21 20 20 21 22 21 20 18 16 12 8 4 3 5 6 9 8
4 18 14 17 20 20 22 18 8 6 10 10 12 15 6 15 15 16 16 18 18 16 18 20 24 23 22 21 21 20 20 20 20 17 14 10 6 3 1 3 6 9 13 16
7 13 14 19 14 22 15 16 13 6 3 7 7 9 7 13 11 14 14 10 9 14 18 21 24 24 23 23 22 21 20 19 17 14 11 8 5 4 5 6 8 12 16 18
1 9 15 19 14 17 14 16 14 6 8 3 1 8 5 5 7 5 7 5 4 9 15 21 24 24 25 25 24 21 19 16 14 13 10 8 7 7 9 13 15 18 20 22
5 12 15 16 10 13 17 18 16 11 7 8 5 7 7 7 6 4 1 1 4 8 15 20 24 24 24 24 21 18 17 14 12 10 9 10 10 11 13 18 21 23 24 24
7 8 11 9 15 15 16 16 17 12 8 10 8 12 10 9 6 3 2 3 6 9 15 20 22 24 22 20 18 16 13 10 8 6 5 8 11 15 18 22 24 25 27 29
4 9 8 8 17 18 18 18 17 16 13 9 7 7 2 9 5 4 5 7 9 12 14 20 23 22 20 17 16 14 11 8 5 4 6 12 15 17 20 23 25 28 31 31
5 4 8 10 11 13 14 19 19 19 15 11 7 2 6 12 10 10 10 14 14 15 18 20 23 21 18 16 14 11 8 5 5 5 6 12 16 20 24 26 29 31 31 33
7 5 6 8 9 12 11 12 14 16 15 11 10 5 15 12 12 13 16 17 17 20 19 20 19 17 16 14 10 8 5 4 5 7 11 15 19 22 23 26 28 29 31 31
9 6 3 7 7 12 8 2 3 9 7 3 3 14 17 17 18 18 16 20 20 17 17 17 17 15 12 10 7 3 3 5 8 10 13 17 21 23 25 26 26 27 27 25
6 9 3 5 9 3 7 5 6 9 8 3 12 17 23 25 28 19 16 16 19 19 16 18 18 14 11 6 2 1 5 9 13 16 20 22 23 24 24 23 24 22 20 18
7 8 7 6 9 7 6 9 4 2 8 13 16 19 24 25 9 8 16 18 18 18 17 15 10 8 3 0 4 8 11 14 17 19 19 19 19 19 19 18 18 16 15 15
9 10 11 9 8 5 5 8 8 8 3 16 19 24 24 8 6 26 20 18 16 15 13 10 8 4 1 5 7 8 10 12 15 16 16 15 16 17 15 15 15 15 14 16
12 9 8 9 10 9 8 9 8 6 13 17 19 23 21 25 29 26 21 18 15 13 10 8 7 4 3 4 5 6 8 12 14 15 14 14 14 14 13 15 14 14 14 15
8 5 8 5 4 5 3 5 7 8 17 19 21 20 26 29 27 24 20 16 13 10 9 7 7 6 7 8 8 7 11 14 14 13 12 13 14 13 13 13 13 13 15 15
4 4 4 9 5 8 7 9 12 16 20 21 23 26 26 29 24 22 18 15 12 9 8 8 7 7 8 9 9 10 13 14 13 12 12 13 13 13 12 12 13 13 14 15
1 8 8 5 7 12 10 14 19 24 25 27 25 25 26 26 22 18 16 14 12 10 8 8 8 7 8 8 10 13 14 14 14 14 14 14 13 13 13 12 14 13 11 16
6 5 5 4 20 4 19 21 23 28 29 28 29 26 21 21 20 17 15 14 12 10 8 8 8 7 8 9 11 13 14 15 15 15 15 15 14 14 13 14 13 13 14 12
Wind_Direction
187 197 197 192 197 205 193 204 192 204 182 201 201 203 219 184 205 174 173 172 175 180 177 186 192 194 198 199 206 205 212 218 209 207 189 193 198 203 226 238 240 265 287 279
176 205 198 196 203 215 207 204 202 188 159 202 204 202 195 194 201 197 185 181 185 184 188 183 173 171 178 192 198 207 209 211 204 204 197 194 205 225 236 270 274 279 279 269
179 189 192 193 194 198 222 196 176 183 177 205 192 203 196 189 201 207 222 208 201 201 194 179 172 170 170 176 187 189 197 206 203 205 216 227 211 243 183 239 244 276 298 311
189 136 184 187 190 198 183 209 185 180 179 182 188 197 197 194 197 203 197 200 197 207 204 197 181 172 171 173 175 187 198 204 204 195 191 173 182 159 159 122 61 53 52 45
161 160 184 197 185 202 171 191 196 175 198 189 189 239 184 206 198 198 205 205 214 214 213 207 206 188 176 178 180 193 192 186 187 171 162 154 161 152 124 105 87 74 55 43
144 179 177 193 169 204 153 177 181 197 209 218 179 215 204 190 208 208 204 212 215 221 220 214 185 174 167 166 171 177 172 163 155 153 149 146 138 126 120 116 102 87 67 36
147 168 180 188 177 196 194 155 161 181 196 215 206 197 233 193 197 218 209 211 210 213 220 221 208 183 169 164 160 156 157 151 146 140 128 120 116 116 108 104 101 90 63 33
141 171 166 183 189 181 191 190 166 178 185 160 161 218 209 159 258 211 227 220 205 217 217 216 212 200 179 168 160 154 152 145 137 133 127 120 105 113 105 100 84 65 37 354
168 138 182 179 194 189 190 210 60 238 190 179 171 201 120 198 168 192 200 207 214 215 215 215 208 196 183 171 163 154 148 142 140 136 129 118 100 99 85 29 357 340 337 342
134 140 162 171 174 199 190 202 153 223 174 181 179 194 214 173 193 201 212 216 215 220 215 206 197 189 181 170 158 151 147 144 143 138 132 120 123 132 236 297 309 313 317 320
162 159 161 172 195 174 187 192 208 227 246 189 156 213 207 184 199 200 207 209 231 221 213 200 191 184 175 166 156 149 149 146 142 145 152 156 176 229 267 283 292 301 307 307
292 159 152 173 191 182 191 196 202 184 175 55 255 102 130 144 147 164 193 222 233 211 196 186 180 176 170 160 153 151 145 145 151 160 172 196 218 244 267 283 291 298 297 300
181 153 156 155 176 187 185 189 199 215 258 198 160 126 147 152 169 153 211 160 176 175 174 174 169 168 164 155 153 151 146 151 156 169 203 226 247 265 279 287 292 294 298 301
304 163 172 177 168 176 183 185 197 196 191 199 213 127 165 179 176 123 108 136 147 161 162 161 166 157 156 153 149 146 144 146 151 163 179 242 260 271 278 284 288 293 297 301
269 161 201 167 155 177 190 193 205 205 210 236 174 205 101 141 129 83 101 125 134 140 153 148 141 147 145 140 134 134 132 137 151 172 229 256 268 277 284 288 294 298 299 300
219 139 136 129 168 196 200 204 202 211 214 227 250 202 90 107 122 103 98 98 121 128 126 136 133 132 126 120 117 132 148 160 194 223 259 271 278 285 289 293 296 298 300 302
195 152 205 127 170 179 185 192 199 210 225 230 226 146 127 118 101 96 103 117 107 105 106 114 119 112 103 106 114 131 155 200 242 269 283 287 290 292 294 298 300 301 302 305
192 198 199 143 171 202 79 115 186 200 209 184 104 130 120 114 104 98 113 120 111 110 112 108 101 103 107 113 115 136 221 261 278 290 293 295 296 296 299 301 304 304 307 311
233 194 161 162 195 86 149 167 175 189 162 179 140 120 131 127 107 87 102 113 123 116 113 109 115 120 130 149 148 271 291 294 296 296 296 297 298 301 303 307 307 310 312 311
187 219 209 200 190 203 154 146 183 179 221 172 160 154 155 163 139 122 121 116 111 114 119 120 116 96 95 112 302 310 304 302 297 297 301 305 307 307 309 311 313 314 311 312
179 192 204 204 210 206 91 153 163 217 94 159 161 160 164 171 89 139 131 119 113 109 105 102 98 104 285 299 307 314 312 311 308 313 314 313 313 314 315 315 316 317 317 310
189 178 205 221 211 223 159 157 214 78 126 149 150 157 125 120 122 129 129 121 114 108 103 94 79 55 1 344 354 355 342 324 321 323 327 326 325 325 322 322 327 318 317 318
210 220 190 227 193 108 111 48 114 123 135 145 137 139 137 131 131 131 127 119 111 103 94 88 86 71 46 27 15 5 337 338 340 341 337 335 335 332 331 327 321 321 321 324
188 186 197 179 97 116 109 111 122 126 132 137 140 137 135 132 132 129 127 121 115 106 96 92 84 69 48 29 16 2 357 355 353 349 342 339 338 340 332 328 333 329 325 323
13 168 149 95 131 117 110 123 127 125 127 127 128 131 132 132 130 129 126 119 113 104 93 89 81 67 46 29 12 8 5 5 6 3 356 356 352 345 349 341 334 335 332 317
193 180 207 188 162 172 133 131 131 127 127 128 127 125 126 129 129 129 120 115 110 104 97 85 72 58 40 26 17 12 9 8 7 6 2 4 1 0 352 352 341 340 332 336
Height
1453 1451 1443 1442 1444 1439 1442 1450 1447 1449 1456 1465 1466 1467 1466 1476 1479 1478 1482 1487 1491 1496 1501 1503 1505 1507 1511 1514 1514 1517 1520 1524 1527 1530 1534 1537 1541 1542 1543 1542 1540 1541 1541 1541
1448 1445 1443 1444 1445 1442 1441 1445 1442 1449 1459 1462 1464 1468 1467 1470 1478 1480 1483 1487 1490 1495 1499 1502 1503 1505 1507 1509 1510 1514 1518 1521 1525 1528 1531 1535 1537 1538 1536 1537 1537 1537 1537 1537
1439 1444 1441 1443 1446 1449 1446 1443 1449 1453 1456 1462 1461 1470 1468 1471 1476 1481 1482 1486 1489 1494 1496 1500 1503 1505 1505 1507 1509 1512 1516 1519 1522 1526 1529 1531 1531 1533 1535 1535 1534 1534 1533 1534
1438 1443 1446 1448 1449 1448 1451 1445 1447 1452 1460 1463 1456 1473 1466 1468 1472 1473 1478 1483 1491 1493 1495 1497 1501 1503 1505 1507 1509 1511 1515 1517 1520 1524 1527 1529 1532 1533 1532 1532 1532 1533 1533 1533
1439 1443 1457 1446 1444 1445 1444 1449 1448 1452 1456 1450 1464 1461 1456 1464 1470 1471 1475 1480 1485 1487 1490 1494 1498 1500 1504 1505 1507 1509 1512 1515 1518 1521 1524 1526 1528 1530 1530 1530 1531 1532 1533 1533
1433 1440 1448 1444 1445 1446 1447 1447 1452 1456 1456 1464 1453 1461 1446 1456 1462 1468 1473 1478 1483 1485 1489 1493 1497 1499 1502 1505 1506 1509 1511 1513 1516 1520 1522 1525 1527 1529 1529 1532 1534 1535 1534 1532
1435 1438 1442 1444 1448 1451 1446 1443 1457 1467 1465 1463 1451 1462 1446 1442 1454 1460 1466 1473 1478 1483 1486 1489 1494 1498 1501 1504 1506 1508 1510 1512 1516 1518 1521 1525 1527 1528 1529 1532 1534 1534 1534 1532
1431 1445 1439 1437 1438 1439 1440 1435 1439 1459 1456 1450 1447 1462 1450 1448 1452 1459 1462 1468 1472 1480 1482 1485 1491 1496 1499 1502 1506 1507 1509 1512 1515 1518 1521 1524 1525 1528 1529 1530 1531 1532 1531 1529
1421 1426 1432 1436 1436 1438 1441 1442 1429 1433 1431 1440 1454 1451 1449 1450 1456 1463 1466 1470 1473 1476 1478 1481 1486 1492 1496 1499 1504 1507 1508 1511 1515 1518 1520 1522 1524 1526 1527 1528 1529 1529 1528 1527
1417 1433 1431 1434 1438 1440 1438 1437 1454 1440 1458 1458 1447 1450 1448 1453 1454 1457 1459 1463 1467 1471 1475 1478 1482 1489 1494 1499 1502 1505 1508 1512 1514 1517 1520 1521 1523 1525 1526 1527 1527 1526 1524 1523
1417 1422 1434 1435 1435 1436 1438 1440 1440 1433 1436 1448 1454 1452 1435 1441 1446 1450 1456 1459 1465 1468 1471 1474 1480 1487 1493 1497 1500 1505 1510 1512 1514 1516 1518 1521 1523 1525 1526 1526 1525 1523 1521 1520
1419 1418 1435 1435 1431 1431 1434 1438 1442 1449 1454 1436 1438 1444 1442 1443 1449 1455 1458 1462 1463 1465 1467 1472 1479 1486 1491 1495 1499 1504 1507 1511 1514 1515 1518 1520 1522 1524 1524 1524 1522 1520 1518 1516
1420 1423 1432 1434 1434 1430 1433 1433 1437 1439 1439 1447 1451 1445 1445 1450 1453 1457 1460 1462 1463 1465 1467 1473 1479 1487 1493 1496 1500 1504 1506 1512 1513 1515 1517 1518 1519 1520 1520 1520 1518 1516 1514 1511
1422 1419 1421 1429 1427 1428 1433 1432 1433 1438 1451 1443 1440 1439 1445 1448 1452 1458 1461 1463 1464 1467 1470 1475 1482 1487 1494 1498 1501 1505 1508 1512 1513 1515 1516 1516 1517 1517 1517 1516 1514 1512 1510 1506
1424 1423 1415 1414 1416 1425 1428 1429 1431 1436 1434 1438 1433 1435 1432 1444 1453 1459 1462 1464 1466 1472 1475 1479 1484 1489 1495 1499 1501 1505 1507 1510 1512 1514 1514 1514 1514 1514 1513 1512 1508 1506 1504 1500
1426 1428 1417 1424 1421 1420 1422 1422 1425 1427 1427 1430 1430 1433 1439 1454 1458 1461 1464 1468 1475 1478 1480 1483 1488 1494 1498 1499 1501 1503 1505 1508 1510 1511 1512 1512 1512 1510 1509 1506 1503 1500 1497 1492
1424 1423 1422 1428 1419 1419 1427 1421 1421 1424 1425 1427 1433 1427 1448 1456 1462 1465 1471 1476 1482 1483 1486 1489 1493 1494 1495 1497 1502 1503 1506 1508 1509 1510 1510 1510 1508 1506 1504 1500 1497 1494 1489 1484
1423 1423 1421 1425 1426 1437 1424 1423 1421 1424 1426 1433 1434 1440 1451 1465 1471 1474 1479 1482 1485 1488 1491 1492 1492 1493 1497 1500 1503 1505 1507 1508 1509 1509 1508 1506 1504 1502 1498 1493 1490 1485 1482 1477
1421 1421 1431 1436 1434 1428 1427 1429 1428 1429 1435 1438 1438 1450 1464 1471 1472 1481 1483 1485 1483 1485 1489 1489 1491 1496 1499 1502 1504 1505 1506 1506 1506 1504 1503 1500 1497 1494 1489 1486 1482 1478 1475 1474
1424 1421 1424 1428 1438 1439 1417 1424 1429 1429 1430 1438 1444 1454 1460 1463 1457 1481 1486 1488 1489 1489 1492 1494 1497 1501 1502 1501 1504 1504 1504 1503 1501 1499 1497 1494 1491 1487 1483 1479 1477 1474 1472 1470
1425 1424 1427 1425 1430 1419 1424 1427 1430 1437 1439 1438 1445 1452 1458 1457 1458 1479 1486 1491 1493 1495 1497 1500 1501 1500 1502 1503 1503 1503 1501 1499 1497 1494 1491 1489 1486 1481 1478 1474 1472 1469 1468 1466
1419 1426 1426 1420 1428 1432 1429 1431 1430 1434 1438 1442 1448 1454 1460 1467 1474 1481 1488 1491 1495 1497 1500 1501 1501 1501 1501 1501 1501 1500 1498 1495 1492 1489 1487 1485 1481 1477 1474 1471 1469 1468 1465 1462
1421 1412 1417 1419 1417 1432 1434 1434 1437 1439 1441 1447 1452 1460 1465 1470 1477 1483 1488 1492 1496 1499 1500 1501 1502 1502 1501 1499 1498 1497 1494 1491 1488 1487 1485 1482 1478 1475 1472 1470 1468 1466 1463 1459
1418 1421 1415 1425 1433 1434 1437 1438 1439 1442 1446 1452 1458 1463 1468 1473 1481 1486 1491 1494 1497 1499 1501 1502 1502 1502 1501 1499 1497 1495 1492 1489 1487 1485 1483 1479 1475 1473 1472 1468 1466 1463 1461 1457
1415 1420 1421 1432 1436 1437 1440 1441 1444 1447 1452 1457 1463 1468 1472 1477 1483 1488 1492 1494 1496 1499 1500 1501 1502 1501 1500 1500 1497 1494 1491 1489 1486 1483 1481 1477 1474 1472 1470 1468 1465 1462 1460 1456
1418 1414 1417 1409 1423 1424 1439 1444 1449 1452 1456 1461 1465 1472 1478 1481 1485 1490 1492 1495 1497 1499 1501 1501 1501 1501 1499 1497 1496 1493 1491 1488 1486 1483 1481 1478 1475 1472 1470 1466 1465 1462 1457 1454